RH
94 89 88 89 86 88 85 93 98 95 95 68 55 50 48 47 45 49 48 43 49 60 61 60 57 60 59 49 53 77 84 69 60 82 88 62 53 39 42 35 30 30 32 32 32 30 25
96 96 93 92 87 85 86 87 98 82 57 57 51 47 47 43 43 45 39 41 52 57 58 54 50 51 48 58 56 90 88 94 84 91 83 67 42 37 33 32 29 28 30 31 29 28 26
99 94 98 97 89 92 91 89 95 80 43 50 48 46 43 39 41 37 37 42 48 51 54 53 47 50 47 56 62 80 80 81 71 62 82 53 46 36 29 32 30 28 33 28 31 30 28
99 100 99 99 94 94 97 97 97 65 40 44 48 44 40 37 38 32 35 38 46 47 50 47 44 46 52 51 58 69 71 63 67 60 58 58 43 31 29 27 27 28 26 31 30 29 29
100 98 99 94 98 99 99 97 84 41 40 43 46 42 37 35 38 32 30 36 39 39 45 46 48 46 54 47 46 49 58 57 49 56 56 43 33 32 29 30 32 30 30 33 32 29 28
99 99 95 96 96 97 98 96 60 41 40 41 41 39 37 34 35 31 30 33 32 37 39 44 48 44 42 49 49 45 47 47 67 61 53 35 32 30 28 32 36 28 32 29 32 30 26
99 99 94 76 76 88 97 99 61 43 42 39 38 38 36 34 33 29 35 34 35 36 38 54 51 44 43 47 48 46 52 51 63 51 38 38 42 54 34 36 36 25 26 28 33 34 23
98 100 87 58 58 57 61 88 97 74 41 43 39 37 36 34 33 34 27 47 60 58 41 39 40 42 44 50 47 44 40 73 66 40 36 38 48 44 39 32 31 26 27 30 33 34 22
99 100 95 61 52 54 58 60 97 100 84 35 40 42 32 36 33 34 50 60 60 60 39 35 40 42 48 53 54 43 33 35 36 38 34 42 43 39 31 33 26 31 21 25 23 31 30
100 99 79 71 59 52 53 57 65 99 90 34 40 42 33 38 39 43 61 62 60 59 55 55 36 33 35 56 36 36 36 34 37 38 38 43 40 36 35 37 39 25 37 27 27 23 28
100 89 82 76 69 60 55 56 51 57 73 33 34 38 32 39 43 52 59 59 64 54 72 35 36 31 36 38 39 35 38 30 38 44 38 49 50 43 41 50 48 37 36 31 26 24 45
89 87 80 78 73 66 58 51 50 45 49 34 31 42 32 39 40 53 47 59 53 78 68 60 40 40 35 36 37 37 38 31 34 31 38 48 45 51 52 46 45 45 32 30 26 22 72
89 80 77 78 72 66 59 52 48 46 43 34 35 46 35 37 52 56 53 50 84 82 42 49 44 40 40 39 36 40 45 46 44 56 36 36 44 46 54 44 38 34 25 54 63 93 35
88 80 76 75 74 66 58 50 47 42 39 40 36 48 50 54 52 56 52 38 80 52 48 41 42 36 39 39 35 40 38 39 42 35 34 41 54 53 56 60 48 41 27 47 43 35 38
80 77 75 73 75 70 60 54 45 42 37 43 38 47 49 58 53 47 37 89 58 47 47 48 36 35 35 36 34 35 44 44 46 43 33 30 44 48 59 54 54 39 43 37 76 61 43
76 74 74 72 71 69 60 55 44 37 37 41 45 48 55 55 45 44 52 60 51 48 54 48 36 38 35 36 33 34 38 46 45 45 41 37 41 52 52 50 46 38 41 42 43 51 34
78 74 73 69 70 68 63 55 48 38 35 42 41 36 48 48 38 40 82 54 48 44 52 43 39 36 37 38 39 41 40 47 47 45 40 39 40 49 51 39 37 44 44 40 35 36 28
77 74 72 70 68 69 66 56 51 43 38 44 56 47 40 36 50 55 56 46 44 46 49 50 45 41 36 39 40 41 42 50 52 51 42 48 33 44 39 52 50 45 41 35 29 41 43
77 75 70 69 68 69 65 58 50 46 43 46 45 43 35 32 51 48 51 50 51 49 53 51 47 49 46 44 44 46 49 56 56 53 47 41 35 38 32 48 53 56 44 43 36 40 46
80 80 76 70 68 68 66 56 49 45 44 42 41 54 45 48 50 38 44 50 44 54 54 53 52 48 44 44 48 50 53 59 60 59 62 46 42 28 26 29 49 51 55 48 41 52 31
83 84 82 79 69 69 70 59 50 42 41 42 52 54 55 55 46 48 48 48 46 48 52 52 46 50 50 44 47 47 53 57 59 66 56 47 46 59 42 39 46 42 40 54 55 38 32
86 87 85 84 78 66 69 66 53 44 36 50 46 45 55 52 54 47 47 47 45 50 49 46 44 51 50 48 45 42 46 51 44 61 56 58 50 56 42 47 48 48 36 37 41 38 36
89 98 91 92 88 71 65 67 58 47 39 61 75 71 45 62 53 41 41 43 44 48 50 50 50 49 47 46 47 45 44 46 48 49 52 53 54 52 47 54 51 46 36 38 41 44 37
92 100 96 93 93 88 69 71 65 56 51 54 71 66 42 42 51 46 49 45 46 47 45 48 50 49 47 50 48 50 49 53 53 55 57 60 50 55 60 57 60 35 40 39 42 38 40
89 95 91 91 90 92 81 71 73 68 60 58 66 70 52 45 49 53 60 57 53 53 53 52 50 54 56 47 46 42 45 52 62 68 63 62 52 55 62 57 42 29 45 45 46 34 35
94 96 93 86 85 88 95 74 75 72 69 67 69 68 66 50 47 50 51 54 52 52 53 56 55 61 54 53 51 49 37 40 45 63 71 70 62 57 72 75 58 40 37 35 36 42 39
100 99 99 86 84 83 86 92 78 75 74 69 73 74 71 62 59 54 53 53 56 59 56 64 59 60 60 58 59 60 51 54 47 48 74 80 74 75 66 71 59 44 40 39 53 44 41
75 71 71 71 75 85 88 92 85 81 77 74 80 78 75 71 66 72 60 62 67 61 58 60 60 65 64 65 64 59 66 58 60 52 60 60 72 73 68 73 78 46 46 49 44 42 43
68 65 58 54 55 58 78 88 92 85 84 83 81 83 82 79 71 74 72 64 57 55 58 67 59 62 57 64 67 64 64 68 61 57 62 58 50 51 54 52 47 46 44 39 44 45 47
Wind_Speed
19 19 19 19 20 19 17 15 11 10 10 7 9 12 16 17 19 21 15 11 9 5 5 5 3 3 1 3 6 3 8 4 6 3 4 5 14 12 16 11 5 6 5 4 6 8 8
18 19 20 21 21 20 18 15 13 10 8 7 9 13 15 17 22 21 11 10 11 9 4 3 2 3 1 5 4 6 11 14 16 7 2 5 6 4 8 6 4 5 9 10 6 6 5
19 20 21 22 23 21 20 15 13 10 8 9 10 12 15 18 23 18 12 10 14 11 9 7 5 8 15 5 3 8 5 11 12 4 3 3 3 6 8 9 6 12 12 11 6 2 4
18 20 21 22 23 22 21 18 13 10 8 9 9 11 14 18 24 18 9 7 8 7 8 7 8 6 6 6 5 1 4 6 4 6 2 2 6 2 2 10 5 6 10 11 3 2 2
18 20 21 22 22 23 22 19 15 11 9 8 10 11 14 16 23 17 8 11 2 5 7 9 5 3 5 1 1 2 2 1 4 6 3 4 2 2 6 12 8 5 12 12 6 4 3
18 20 21 23 22 22 22 20 16 13 10 9 9 11 13 14 20 19 7 8 12 10 3 3 9 1 5 5 4 3 4 7 6 5 1 1 1 6 7 7 11 10 10 10 11 3 2
18 20 22 23 24 23 23 22 17 12 11 10 10 11 12 12 14 17 3 1 1 6 12 5 4 4 3 4 5 7 5 7 4 3 3 3 8 7 6 3 4 4 13 13 4 3 2
18 20 22 24 24 25 25 24 22 18 10 9 11 12 13 11 10 10 8 5 2 1 8 7 5 4 2 3 4 11 5 2 3 4 3 6 8 4 1 6 2 6 14 8 5 4 2
16 20 22 24 25 26 26 28 24 22 16 7 9 14 14 9 6 4 10 4 2 1 2 6 3 5 4 6 4 8 6 3 5 8 12 9 4 3 3 8 4 6 7 4 5 4 4
15 18 22 23 25 26 27 30 32 24 21 5 5 13 16 9 2 3 4 3 1 1 2 12 6 6 4 3 4 4 5 3 4 7 6 8 5 5 8 5 5 3 3 4 8 4 2
15 17 20 22 24 26 28 30 32 31 22 9 5 11 13 9 3 3 1 2 2 1 5 14 5 7 6 5 6 7 4 5 5 5 2 4 6 8 10 5 7 3 1 4 3 4 2
15 16 19 21 24 25 27 29 31 32 25 10 6 9 9 4 7 4 3 3 1 2 5 5 6 7 2 5 3 5 4 5 2 9 14 3 1 6 5 5 3 3 2 3 3 1 1
13 14 17 20 23 25 26 29 31 34 26 7 5 7 8 6 2 4 4 1 2 5 2 4 4 5 3 7 5 6 5 8 4 3 5 3 6 3 6 4 2 3 2 2 2 1 1
10 13 16 19 21 24 26 28 30 32 27 7 1 5 7 7 3 1 2 1 8 1 2 2 2 4 4 8 5 7 2 4 7 2 4 3 3 6 8 3 4 3 3 1 2 2 1
9 11 15 18 20 23 25 27 29 32 28 9 1 2 4 8 2 2 2 6 3 0 2 5 3 1 2 3 4 3 6 4 5 8 4 2 3 2 3 3 3 0 2 2 6 2 2
9 10 13 16 19 22 24 27 29 31 27 8 2 2 5 7 3 1 4 5 2 2 2 2 2 4 3 6 1 2 3 3 3 6 6 3 4 2 3 4 4 2 5 2 1 1 3
8 9 11 13 17 19 22 25 28 31 28 8 3 1 8 4 4 5 4 4 1 2 2 1 2 2 2 3 4 3 3 2 3 4 3 2 2 3 3 1 1 3 2 3 2 2 2
7 8 10 12 14 17 21 23 27 31 27 6 2 2 9 3 3 3 3 2 1 3 2 3 4 3 1 1 3 2 3 2 3 2 1 1 1 2 2 2 3 2 1 1 2 4 0
5 8 9 10 12 16 19 22 25 29 24 5 2 1 6 3 3 3 2 2 2 2 3 3 3 2 2 2 2 2 0 1 1 2 1 1 1 2 2 2 1 3 1 2 2 2 7
5 7 10 11 11 14 17 20 23 27 21 4 1 1 4 4 2 4 4 2 2 1 2 3 2 1 2 2 2 1 1 1 3 1 2 3 3 2 2 2 1 3 3 4 4 3 3
8 8 9 10 12 13 15 18 20 24 20 3 4 2 1 2 3 4 0 2 3 2 2 2 2 3 3 2 1 1 1 1 1 3 3 3 3 1 6 6 6 8 11 15 13 16 9
9 9 8 9 11 11 13 16 18 21 15 6 1 2 0 2 0 1 1 2 2 2 1 3 3 1 0 1 0 3 3 2 1 2 2 0 1 1 3 1 4 9 14 16 17 16 18
11 12 10 9 10 10 10 13 15 18 11 5 3 2 1 2 1 1 2 2 1 0 1 1 1 1 2 2 2 4 4 2 2 3 3 2 4 2 3 1 5 10 10 13 7 7 10
14 14 11 10 11 11 9 10 11 12 13 7 2 1 0 2 0 1 0 1 1 1 0 0 1 1 2 2 3 3 3 3 2 2 0 2 2 2 3 3 4 3 3 3 10 11 12
17 15 11 12 11 12 10 8 8 8 7 6 3 1 1 2 2 2 2 2 1 0 0 1 2 2 3 3 3 4 2 4 3 4 3 1 3 3 4 3 9 8 2 3 4 3 2
19 19 16 15 14 13 13 8 6 5 4 2 4 3 0 1 4 3 3 3 2 2 2 1 1 1 2 1 0 2 3 3 2 4 4 5 1 4 1 3 4 4 2 1 3 7 3
15 15 16 17 18 16 15 13 9 5 3 1 2 2 1 0 2 3 2 2 3 1 1 1 0 1 1 2 3 4 3 2 3 3 4 4 4 10 9 6 7 7 3 1 4 3 1
9 10 12 15 17 17 16 16 13 10 6 4 3 5 2 1 1 4 4 3 2 2 3 3 2 2 2 4 3 2 3 1 3 1 3 5 7 5 4 5 8 4 4 4 4 3 4
8 11 14 17 19 18 21 21 17 15 11 8 3 7 5 2 1 4 6 7 6 5 4 3 1 3 3 3 3 1 4 3 4 4 3 5 5 3 8 5 2 3 4 3 3 4 7
Wind_Direction
29 27 20 17 13 10 11 3 2 356 346 360 355 349 350 352 352 346 342 357 332 305 346 352 23 120 61 57 28 34 131 97 178 354 316 198 164 171 153 158 161 161 140 93 130 134 114
25 23 18 16 15 12 10 7 357 350 337 344 346 344 349 355 359 349 1 39 52 68 80 17 54 122 55 66 340 81 112 147 173 214 292 266 153 242 127 128 203 128 125 119 112 118 105
26 22 17 15 16 13 11 7 358 352 336 331 338 348 352 359 1 1 21 82 80 71 58 38 103 101 62 24 89 104 113 163 151 161 180 252 348 230 150 123 130 127 115 116 66 59 106
22 22 17 15 14 14 12 8 7 7 1 345 345 353 356 1 4 1 41 128 89 53 34 44 80 78 69 55 126 238 131 132 115 83 215 342 355 79 62 120 111 150 161 143 59 350 97
22 19 17 17 14 13 13 16 14 22 15 357 351 353 354 359 4 3 46 73 51 356 50 45 34 19 66 17 71 9 82 320 68 110 21 339 30 83 135 145 144 163 161 144 130 26 143
19 18 18 16 15 16 12 14 20 21 15 5 351 351 348 352 8 14 105 84 54 47 333 7 30 70 43 356 337 13 29 71 87 304 157 27 93 138 126 173 167 168 150 149 138 43 172
19 18 18 20 18 16 14 10 12 13 4 356 349 345 342 344 3 16 75 44 353 62 38 70 18 50 21 353 15 45 53 61 26 206 98 32 120 93 84 49 319 246 152 132 99 22 185
19 18 20 22 20 19 17 10 6 359 346 348 344 342 336 332 343 9 56 70 56 27 77 38 47 36 42 328 79 30 71 132 291 17 140 90 67 3 89 59 26 202 140 113 98 16 233
17 17 17 22 21 19 17 13 5 358 349 328 348 353 344 326 329 17 66 93 94 95 56 64 339 356 356 5 52 9 359 12 19 62 72 80 4 336 93 55 105 63 135 148 123 141 79
15 18 21 21 20 18 16 14 10 1 356 337 341 348 346 344 88 44 60 35 11 148 83 4 12 14 353 322 56 10 12 354 45 61 55 71 359 79 78 66 338 102 9 99 120 177 138
10 20 18 18 18 16 14 12 12 10 360 12 345 349 352 34 96 64 358 360 136 281 47 337 355 327 357 18 318 38 16 49 60 24 218 44 27 44 64 1 324 84 7 82 86 87 140
10 16 13 12 14 14 13 11 10 11 7 13 17 7 11 48 58 57 23 121 193 55 46 344 328 354 303 19 42 320 33 55 119 66 63 89 44 41 28 360 11 139 136 83 77 62 67
2 6 6 9 10 11 11 9 9 6 6 2 28 34 36 51 78 8 114 173 52 59 350 343 342 350 346 10 29 25 45 48 27 114 48 81 39 49 26 344 248 270 218 75 61 15 284
359 2 1 6 6 7 7 7 6 6 5 14 41 53 38 37 11 27 167 178 66 264 274 1 313 304 38 353 38 13 52 65 40 6 85 73 84 10 9 356 327 6 339 83 163 184 92
344 357 1 3 3 4 4 4 3 6 5 13 93 98 39 353 12 139 192 53 71 157 339 328 293 350 59 48 357 43 39 29 1 357 68 86 78 23 30 319 295 61 61 40 101 69 277
331 344 355 359 2 2 4 3 1 3 2 10 117 102 26 359 30 29 77 115 130 212 280 230 36 352 1 13 43 49 22 21 357 15 347 143 109 202 230 230 63 10 125 112 71 156 254
324 336 347 355 359 0 2 3 0 1 0 12 95 119 356 7 51 54 60 48 103 222 220 185 137 118 61 8 26 37 34 63 7 11 23 145 245 162 241 351 94 154 153 73 84 332 293
322 336 342 351 354 359 0 3 1 359 2 360 99 52 351 46 51 47 65 47 67 24 1 345 346 6 29 61 64 99 87 40 5 342 336 35 295 125 54 30 339 304 228 236 232 187 92
338 353 351 349 351 357 0 4 1 358 2 351 53 345 351 53 73 62 80 70 41 34 35 8 10 26 27 27 359 357 155 131 175 155 155 134 41 153 157 165 148 277 219 321 47 8 211
314 331 353 356 350 356 0 4 4 358 1 24 93 57 20 55 37 112 138 89 97 85 30 354 9 348 349 11 38 98 56 31 346 42 74 252 145 176 296 108 168 221 204 204 255 246 269
293 310 329 344 350 349 357 4 8 2 357 31 19 75 141 30 57 90 67 157 149 130 122 97 115 34 1 350 356 67 155 175 85 353 355 318 270 207 247 238 235 243 212 191 201 217 230
282 293 307 325 337 346 353 3 9 11 8 54 73 156 159 104 273 165 3 134 143 146 205 142 130 132 114 237 253 333 327 256 247 165 183 117 203 194 261 24 258 269 261 246 241 250 254
275 286 290 306 320 335 343 357 11 18 36 75 48 56 286 41 68 242 98 126 128 277 341 358 158 205 206 196 258 293 251 267 332 310 210 230 175 188 237 196 294 268 279 227 209 237 236
278 282 270 289 304 314 328 342 4 25 42 88 86 103 186 120 226 52 112 131 161 299 334 194 216 255 41 288 238 186 206 265 243 188 57 174 245 280 289 260 232 97 177 156 223 253 229
265 272 264 278 290 299 304 318 341 9 37 79 108 179 190 140 153 184 196 201 169 18 237 296 38 3 322 327 300 307 201 165 122 42 229 248 212 258 276 258 315 287 135 152 197 283 226
253 253 255 260 267 279 283 283 296 333 360 55 95 109 38 162 211 154 154 170 182 182 176 215 82 1 357 27 275 254 273 335 227 161 96 150 157 229 220 259 270 34 80 118 213 282 49
234 239 251 257 255 254 263 259 255 265 293 226 151 121 77 175 172 190 181 150 133 129 160 254 171 139 1 174 216 229 243 352 268 247 167 145 176 219 234 265 278 288 201 174 262 17 353
240 247 253 255 255 244 248 251 243 238 232 216 180 169 142 164 214 202 185 157 137 190 197 134 196 165 154 199 213 216 228 211 274 239 215 196 178 199 186 224 266 139 116 232 23 5 320
253 265 265 261 254 248 238 240 238 228 224 212 205 183 170 174 359 208 225 229 216 189 156 187 305 166 194 173 211 189 213 196 212 254 212 244 232 228 216 235 76 177 264 331 349 302 303